If you wish to contribute or participate in the discussions about articles you are invited to join SKYbrary as a registered user

 Actions

Agadir – Al Massira Airport

From SKYbrary Wiki

GMAD
Airport
ICAO: GMAD – IATA: AGA
Summary
Name Agadir Al Massira Airport
Region Africa
Territory Morocco MA.gif
Location Temsia, Souss-Massa region
Serving Agadir
Elevation 68.885 m <br />226 ft68.885 m <br />
Coordinates 30° 19' 30.00" N, 9° 24' 47.02" W
Runways
Designator Length Width Surface ROPS
10/28 3200 m10,498.688 ft <br /> 45 m147.638 ft <br /> ASP yes/yes


METAR
Observation GMAD 190700Z 00000KT 5000 BKN003 11/11 Q1016 NOSIG
Station Agadir Al Massira
Date/Time 19 October 2021 07:00:00
Wind direction
Wind speed 00 kts
Lowest cloud amount broken clouds
Temperature 11°C
Dew point 11°C
Humidity 100%
QNH 1016 hPa
Weather condition n/a

Agadir – Al Massira Airport is an international airport serving Agadir, a major city in southwest Morocco and the capital of Souss-Massa region.

Climatology

Warm semi-arid climate (Köppen climate classification BSh)

Maps

Terrain

Loading map...

Airport Layout

Loading map...


Accidents & Serious Incidents at or in vicinity of GMAD

None on SKYbrary